Station JCRN4 - Nacote Creek, Jacques Cousteau Reserve, NJ Image indicating link to RSS feed of recent meteorological observations for station JCRN4


Conditions at JCRN4 as of
(6:30 pm EDT)
2230 GMT on 05/18/2024:
     

Click on the graph icon in the table below to see a time series plot of the last five days of that observation.

5-day plot - Wind Direction Wind Direction (WDIR): N ( 10 deg true )
5-day plot - Wind Speed Wind Speed (WSPD): 2.9 kts
5-day plot - Atmospheric Pressure Atmospheric Pressure (PRES):30.00 in
5-day plot - Air Temperature Air Temperature (ATMP): 59.7 °F
5-day plot - Dew Point Dew Point (DEWP): 59.7 °F
5-day plot -  Wind Speed, Wind Gust and Atmospheric Pressure Combined plot of Wind Speed, Gust, and Air Pressure
Previous observations
TIME
(EDT)
5-day plot - Wind Direction
WDIR
 
5-day plot - Wind Speed
WSPD
kts
5-day plot - Wind Gust
GST
kts
5-day plot - Wave Height
WVHT
ft
5-day plot - Dominant Wave Period
DPD
sec
5-day plot - Average Wave Period
APD
sec
5-day plot - Mean Wave Direction
MWD
 
5-day plot - Atmospheric Pressure
PRES
in
5-day plot - Pressure Tendency
PTDY
in
5-day plot - Air Temperature
ATMP
°F
5-day plot - Water Temperature
WTMP
°F
5-day plot - Dew Point
DEWP
°F
5-day plot - Salinity
SAL
psu
5-day plot - Visibility
VIS
nmi
5-day plot - Tide (above MLLW)
TIDE
ft
2024-05-18 06:15 pmNNE 4.1-----30.00- 59.7- 59.7---
2024-05-18 06:00 pm N 2.9-----30.00+0.00 59.7- 59.7---
2024-05-18 05:45 pm NE 2.9-----30.00- 59.4- 59.4---
2024-05-18 05:30 pmNNE 4.1-----30.00- 59.5- 59.5---
2024-05-18 05:15 pmNNE 5.1-----30.00- 59.5- 59.5---
2024-05-18 05:00 pmNNE 5.1-----30.00+0.00 59.5- 59.5---
2024-05-18 04:45 pmNNE 7.0-----30.00- 59.0- 59.0---
2024-05-18 04:30 pm NE 7.0-----30.00- 58.6- 58.6---
2024-05-18 04:15 pm NE 6.0-----30.00- 58.6- 58.6---
2024-05-18 04:00 pmNNE 6.0-----30.00+0.00 59.0- 59.0---
2024-05-18 03:45 pm NE 7.0-----30.00- 58.8- 58.8---
2024-05-18 03:30 pm NE 6.0-----30.00- 58.8- 58.8---
2024-05-18 03:15 pmNNE 7.0-----30.00- 58.8- 58.8---
2024-05-18 03:00 pmNNE 8.0-----30.00+0.00 58.8- 58.8---
2024-05-18 02:45 pm NE 7.0-----30.03- 59.0- 58.6---
2024-05-18 02:30 pm NE 7.0-----30.03- 59.4- 58.8---
2024-05-18 02:15 pm NE 8.9-----30.00- 60.1- 58.5---
2024-05-18 02:00 pm NE 8.9-----30.00+0.00 60.8- 57.6---
2024-05-18 01:45 pm NE 8.0-----30.00- 61.7- 58.5---
2024-05-18 01:30 pm NE 7.0-----30.00- 62.6- 58.5---
2024-05-18 01:15 pm NE 8.0-----30.00- 63.0- 57.2---
2024-05-18 01:00 pm NE 8.0-----30.00-0.03 63.3- 56.1---
2024-05-18 12:45 pm NE 7.0-----30.00- 63.5- 55.2---
2024-05-18 12:30 pm NE 6.0-----30.00- 63.9- 55.2---
2024-05-18 12:15 pm NE 6.0-----30.00- 64.4- 54.5---
2024-05-18 12:00 pmENE 5.1-----30.00-0.03 64.9- 55.0---
2024-05-18 11:45 amENE 6.0-----30.00- 64.9- 57.0---
2024-05-18 11:30 amENE 5.1-----30.00- 65.7- 58.5---
2024-05-18 11:15 am E 1.0-----30.00- 66.9- 57.0---
2024-05-18 11:00 am N 1.9-----30.00+0.00 66.2- 56.3---
2024-05-18 10:45 am N 2.9-----30.00- 66.0- 56.1---
2024-05-18 10:30 am N 2.9-----30.00- 65.5- 55.9---
2024-05-18 10:15 amNNE 4.1-----30.00- 65.1- 55.6---
2024-05-18 10:00 amNNE 4.1-----30.03+0.03 64.8- 55.8---
2024-05-18 09:45 amNNE 4.1-----30.03- 64.8- 55.4---
2024-05-18 09:30 amNNE 4.1-----30.03- 64.8- 54.9---
2024-05-18 09:15 am N 4.1-----30.03- 65.1- 54.9---
2024-05-18 09:00 am N 1.9-----30.03+0.03 64.8- 54.5---
2024-05-18 08:45 am N 1.9-----30.03- 64.2- 55.6---
2024-05-18 08:30 am- 0.0-----30.03- 63.7- 57.6---
2024-05-18 08:15 am N 1.9-----30.03- 63.3- 58.5---
2024-05-18 08:00 am N 2.9-----30.00+0.03 62.8- 60.4---
2024-05-18 07:45 am N 1.0-----30.00- 61.7- 61.7---
2024-05-18 07:30 am N 1.9-----30.00- 61.2- 61.2---
2024-05-18 07:15 am N 2.9-----30.00- 61.0- 61.0---
2024-05-18 07:00 am N 2.9-----30.00+0.00 60.1- 60.1---
2024-05-18 06:45 am S 1.0-----30.03- 59.9- 59.9---
2024-05-18 06:30 am S 2.9-----30.00- 59.7- 59.7---
2024-05-18 06:15 am- 0.0-----30.00- 59.4- 59.4---
2024-05-18 06:00 am- 0.0-----30.00+0.03 59.4- 59.4---
2024-05-18 05:45 am- 0.0-----29.97- 59.4- 59.4---
2024-05-18 05:30 am- 0.0-----29.97- 59.2- 59.2---
2024-05-18 05:15 am N 1.0-----29.97- 59.0- 59.0---
2024-05-18 05:00 am N 1.0-----29.97-0.03 58.8- 58.8---
2024-05-18 04:45 am- 0.0-----29.97- 58.6- 58.6---
2024-05-18 04:30 am- 0.0-----29.97- 58.8- 58.8---
2024-05-18 04:15 am- 0.0-----29.97- 58.8- 58.8---
2024-05-18 04:00 am- 0.0-----30.00+0.03 58.6- 58.6---
2024-05-18 03:45 am S 1.9-----30.00- 58.3- 58.3---
2024-05-18 03:30 am S 2.9-----30.00- 58.3- 58.3---
2024-05-18 03:15 amSSW 2.9-----29.97- 58.1- 58.1---
2024-05-18 03:00 am- 0.0-----29.97+0.00 57.9- 57.9---
2024-05-18 02:45 am- 0.0-----29.97- 57.9- 57.9---
2024-05-18 02:30 amSSW 1.9-----30.00- 57.9- 57.9---
2024-05-18 02:15 amSSW 2.9-----30.00- 57.9- 57.9---
2024-05-18 02:00 amSSW 2.9-----30.00+0.03 57.9- 57.9---
2024-05-18 01:45 am S 1.9-----30.00- 57.6- 57.6---
2024-05-18 01:30 am S 2.9-----30.00- 57.4- 57.4---
2024-05-18 01:15 amSSW 2.9-----30.00- 57.6- 57.6---
2024-05-18 01:00 am S 1.0-----29.97+0.00 58.1- 58.1---
2024-05-18 12:45 am- 0.0-----29.97- 58.1- 58.1---
2024-05-18 12:30 am- 0.0-----29.97- 58.3- 58.3---
2024-05-18 12:15 am- 0.0-----29.97- 58.3- 58.3---
2024-05-18 12:00 am- 0.0-----29.97+0.00 58.3- 58.3---
2024-05-17 11:45 pm- 0.0-----29.97- 58.5- 58.5---
2024-05-17 11:30 pm N 1.9-----29.97- 58.5- 58.5---
2024-05-17 11:15 pmNNE 1.0-----29.97- 58.5- 58.5---
2024-05-17 11:00 pm NE 1.0-----29.97+0.00 58.8- 58.8---
2024-05-17 10:45 pm NE 1.0-----30.00- 59.2- 59.2---
2024-05-17 10:30 pm- 0.0-----30.00- 59.2- 59.2---
2024-05-17 10:15 pm- 0.0-----30.00- 59.0- 59.0---
2024-05-17 10:00 pm- 0.0-----29.97-0.03 59.0- 59.0---
2024-05-17 09:45 pm- 0.0-----29.97- 59.2- 59.2---
2024-05-17 09:30 pm- 0.0-----29.97- 59.7- 59.7---
2024-05-17 09:15 pm- 0.0-----29.97- 59.9- 59.9---
2024-05-17 09:00 pm- 0.0-----29.97-0.03 60.1- 60.1---
2024-05-17 08:45 pm- 0.0-----29.97- 60.6- 60.6---
2024-05-17 08:30 pm- 0.0-----29.97- 61.2- 60.8---
2024-05-17 08:15 pm- 0.0-----29.97- 62.1- 61.2---
2024-05-17 08:00 pm- 0.0-----29.97-0.03 63.5- 61.5---
2024-05-17 07:45 pm- 0.0-----29.97- 64.9- 60.8---
2024-05-17 07:30 pm- 0.0-----29.97- 65.5- 58.6---
2024-05-17 07:15 pm SE 1.9-----30.00- 66.0- 58.1---
2024-05-17 07:00 pm SE 1.0-----30.00+0.00 66.7- 57.9---